Location: Newark
(33.6439°N, 114.9881°W)
Time: 22:12:17
(UTC+00:00)

Tiros 1 - Pass Details

Date: 25 July 2019
Orbit: 631 x 664 km, 48.4° (Epoch: 25 August)

Event Time Altitude Azimuth Distance (km) Brightness Sun altitude
Rises 19:02:48 0° 268° (W) 2,975 10.5 72.9°
Reaches altitude 10° 19:05:32 10° 283° (WNW) 2,070 9.7 73.2°
Maximum altitude 19:09:25 24° 337° (NNW) 1,362 9.0 73.7°
Drops below altitude 10° 19:13:19 10° 31° (NNE) 2,082 9.8 74.1°
Sets 19:16:05 0° 46° (NE) 2,996 10.5 74.4°
